Weather History for Springfield, VT

Change the Weather History Date:

Monday, February 24, 2014

  Actual Average Record
Temperature  
Mean Temperature 27 °F 25 °F  
Max Temperature 35 °F 36 °F 42 °F (2002)
Min Temperature 18 °F 15 °F -2 °F (1999)
Degree Days  
Heating Degree Days 38 40  
Month to date heating degree days 1070 1019  
Since 1 July heating degree days 5495 5291  
Moisture  
Dew Point 9 °F    
Average Humidity 52    
Maximum Humidity 69    
Minimum Humidity 35    
Precipitation  
Precipitation T in 0.09 in 0.47 in (1998)
Month to date precipitation 1.39 2.35  
Year to date precipitation 3.68 5.27  
Sea Level Pressure  
Sea Level Pressure 29.83 in    
Wind  
Wind Speed 11 mph (West)    
Max Wind Speed 23 mph    
Max Gust Speed 33 mph    
Visibility 9 miles    
Events Snow    
T = Trace of Precipitation, MM = Missing Value Source: NWS Daily Summary

Daily Weather History Graph

Daily Weather History Graph

Search for Another Location

Airport:

Trip Planner

Search our weather history database for the weather conditions in past years. The results will help you decide how hot, cold, wet, or windy it might be!

Date:

Astronomy

Feb. 24, 2014 Rise Set
Actual Time 6:34 AM EST 5:32 PM EST
Civil Twilight 6:05 AM EST 6:01 PM EST
Nautical Twilight 5:32 AM EST 6:34 PM EST
Astronomical Twilight 4:59 AM EST 7:07 PM EST
Moon 2:35 AM EST (2/24) 12:25 PM EST (2/24)
Length of Visible Light 11h 55m
Length of Day
10h 58m
Waning Crescent, 28% of the Moon is Illuminated
Feb 24
Waning Crescent
Mar 1
New
Mar 8
First Quarter
Mar 16
Full
Mar 23
Last Quarter

Hourly Weather History & Observations

Time (EST) Temp. Windchill Dew Point Humidity Pressure Visibility Wind Dir Wind Speed Gust Speed Precip Events Conditions
12:54 AM 34.0 °F 29.8 °F 9.0 °F 35% 29.77 in 10.0 mi Variable 4.6 mph - N/A   Clear
1:54 AM 33.1 °F 26.9 °F 8.1 °F 35% 29.78 in 10.0 mi West 6.9 mph - N/A   Clear
2:54 AM 30.9 °F 22.2 °F 9.0 °F 40% 29.78 in 10.0 mi West 10.4 mph - N/A   Clear
3:54 AM 28.9 °F 23.9 °F 10.9 °F 47% 29.79 in 10.0 mi NW 4.6 mph - N/A   Clear
4:54 AM 28.0 °F 21.7 °F 12.9 °F 53% 29.81 in 10.0 mi WNW 5.8 mph - N/A   Overcast
5:54 AM 26.1 °F 16.2 °F 12.9 °F 58% 29.81 in 10.0 mi WSW 10.4 mph - N/A   Overcast
6:54 AM 25.0 °F 15.5 °F 12.0 °F 58% 29.82 in 10.0 mi WNW 9.2 mph 19.6 mph N/A   Mostly Cloudy
7:54 AM 26.1 °F 17.6 °F 10.0 °F 51% 29.83 in 10.0 mi West 8.1 mph - N/A   Partly Cloudy
8:54 AM 26.1 °F 14.5 °F 9.0 °F 49% 29.82 in 10.0 mi WNW 13.8 mph 27.6 mph N/A   Clear
9:54 AM 26.1 °F 17.6 °F 10.0 °F 51% 29.81 in 10.0 mi West 8.1 mph 24.2 mph N/A   Mostly Cloudy
10:54 AM 26.1 °F 13.6 °F 9.0 °F 49% 29.81 in 10.0 mi West 16.1 mph 26.5 mph N/A   Mostly Cloudy
11:54 AM 26.1 °F 15.0 °F 9.0 °F 49% 29.81 in 10.0 mi West 12.7 mph 20.7 mph N/A   Mostly Cloudy
12:54 PM 26.1 °F 14.5 °F 7.0 °F 44% 29.79 in 10.0 mi WNW 13.8 mph 21.9 mph N/A   Overcast
1:54 PM 27.0 °F 13.5 °F 3.9 °F 37% 29.78 in 10.0 mi West 19.6 mph 24.2 mph N/A   Overcast
2:54 PM 27.0 °F 13.9 °F 7.0 °F 43% 29.79 in 10.0 mi West 18.4 mph 24.2 mph N/A   Mostly Cloudy
3:54 PM 24.1 °F 14.4 °F 12.9 °F 62% 29.80 in 8.0 mi WNW 9.2 mph 19.6 mph 0.00 in Snow Light Snow
4:49 PM 23.0 °F 17.0 °F 12.2 °F 63% 29.79 in 2.0 mi West 4.6 mph - 0.00 in Snow Light Snow
4:54 PM 23.0 °F 15.8 °F 12.9 °F 65% 29.83 in 5.0 mi West 5.8 mph - 0.00 in Snow Light Snow
5:54 PM 21.9 °F 6.5 °F 5.0 °F 48% 29.85 in 10.0 mi West 20.7 mph 32.2 mph 0.00 in   Overcast
6:54 PM 21.0 °F 8.6 °F 7.0 °F 55% 29.89 in 10.0 mi WNW 12.7 mph 23.0 mph N/A   Overcast
7:54 PM 21.0 °F 5.4 °F 3.9 °F 48% 29.91 in 10.0 mi WNW 20.7 mph 31.1 mph N/A   Overcast
8:54 PM 19.0 °F 10.0 °F 7.0 °F 59% 29.94 in 9.0 mi Variable 6.9 mph 19.6 mph N/A   Overcast
9:54 PM 18.0 °F 6.9 °F 8.1 °F 65% 29.94 in 10.0 mi WNW 9.2 mph - N/A   Overcast
10:54 PM 19.0 °F 6.8 °F 5.0 °F 54% 29.94 in 10.0 mi West 11.5 mph 18.4 mph N/A   Overcast
11:54 PM 19.0 °F 5.6 °F 3.9 °F 52% 29.94 in 10.0 mi West 13.8 mph 29.9 mph N/A   Overcast